Greenwood, MS

1:59 PM CDT on March 29, 2017 (GMT -0500)
Greenwood-Leflore

Weather History for KGWO - October, 2012

Change the Weather History Date:

Wednesday, October 24, 2012

  Actual Average Record
Temperature  
Mean Temperature 70 °F 62 °F  
Max Temperature 82 °F 74 °F 88 °F (2003)
Min Temperature 58 °F 49 °F 28 °F (2005)
Degree Days  
Heating Degree Days 0 5  
Month to date heating degree days 70 75  
Since 1 July heating degree days 77 87  
Cooling Degree Days 5 2  
Month to date cooling degree days 55 83  
Year to date cooling degree days 2227 2130  
Growing Degree Days 20 (Base 50)    
Moisture  
Dew Point 60 °F    
Average Humidity 75    
Maximum Humidity 97    
Minimum Humidity 52    
Precipitation  
Precipitation 0.00 in 0.13 in 2.20 in (1986)
Month to date precipitation 1.04 3.03  
Year to date precipitation 35.27 40.76  
Sea Level Pressure  
Sea Level Pressure 30.05 in    
Wind  
Wind Speed 5 mph (SSE)    
Max Wind Speed 13 mph    
Max Gust Speed 15 mph    
Visibility 10 miles    
Events      
T = Trace of Precipitation, MM = Missing Value Source: NWS Daily Summary

Daily Weather History Graph

Daily Weather History Graph

Search for Another Location

Airport or City:

Trip Planner

Search our weather history database for the weather conditions in past years. The results will help you decide how hot, cold, wet, or windy it might be!

Date:

Astronomy

Oct. 24, 2012 Rise Set
Actual Time 7:12 AM CDT 6:15 PM CDT
Civil Twilight 6:47 AM CDT 6:41 PM CDT
Nautical Twilight 6:18 AM CDT 7:10 PM CDT
Astronomical Twilight 5:49 AM CDT 7:39 PM CDT
Moon 3:19 PM CDT (10/24) 2:21 AM CDT (10/24)
Length of Visible Light 11h 53m
Length of Day
11h 03m
Waxing Gibbous, 76% of the Moon is Illuminated
Oct 24
Waxing Gibbous
Oct 29
Full
Nov 6
Last Quarter
Nov 13
New
Nov 20
First Quarter

Hourly Weather History & Observations

Time (CDT) Temp. Dew Point Humidity Pressure Visibility Wind Dir Wind Speed Gust Speed Precip Events Conditions
12:53 AM 64.0 °F 59.0 °F 84% 30.04 in 10.0 mi South 8.1 mph - N/A   Clear
1:53 AM 64.0 °F 59.0 °F 84% 30.05 in 10.0 mi South 5.8 mph - N/A   Clear
2:53 AM 64.0 °F 59.0 °F 84% 30.05 in 10.0 mi South 8.1 mph - N/A   Clear
3:53 AM 64.9 °F 59.0 °F 81% 30.05 in 10.0 mi South 8.1 mph - N/A   Clear
4:53 AM 63.0 °F 59.0 °F 87% 30.06 in 10.0 mi SSE 5.8 mph - N/A   Clear
5:53 AM 62.1 °F 59.0 °F 90% 30.08 in 10.0 mi SSE 4.6 mph - N/A   Clear
6:53 AM 61.0 °F 59.0 °F 93% 30.10 in 10.0 mi SSE 4.6 mph - N/A   Clear
7:53 AM 62.1 °F 60.1 °F 93% 30.11 in 9.0 mi SSE 4.6 mph - N/A   Mostly Cloudy
8:53 AM 66.9 °F 62.1 °F 84% 30.12 in 10.0 mi SSE 3.5 mph - N/A   Mostly Cloudy
9:53 AM 71.1 °F 63.0 °F 75% 30.12 in 10.0 mi South 5.8 mph - N/A   Mostly Cloudy
10:53 AM 77.0 °F 63.0 °F 62% 30.11 in 10.0 mi South 8.1 mph - N/A   Mostly Cloudy
11:53 AM 78.1 °F 60.1 °F 54% 30.09 in 10.0 mi SSW 8.1 mph - N/A   Scattered Clouds
12:53 PM 78.1 °F 62.1 °F 58% 30.06 in 10.0 mi SSW 6.9 mph - N/A   Mostly Cloudy
1:53 PM 79.0 °F 61.0 °F 54% 30.04 in 10.0 mi SSE 8.1 mph - N/A   Mostly Cloudy
2:53 PM 79.0 °F 60.1 °F 52% 30.02 in 10.0 mi South 6.9 mph - N/A   Scattered Clouds
3:53 PM 79.0 °F 59.0 °F 50% 30.01 in 10.0 mi SSE 8.1 mph - N/A   Clear
4:53 PM 79.0 °F 59.0 °F 50% 30.00 in 10.0 mi SE 5.8 mph - N/A   Clear
5:53 PM 77.0 °F 61.0 °F 58% 30.00 in 10.0 mi SE 3.5 mph - N/A   Clear
6:53 PM 66.9 °F 62.1 °F 84% 29.99 in 10.0 mi Calm Calm - N/A   Clear
7:53 PM 64.9 °F 62.1 °F 90% 30.01 in 10.0 mi Calm Calm - N/A   Clear
8:53 PM 64.0 °F 61.0 °F 90% 30.01 in 10.0 mi Calm Calm - N/A   Clear
9:53 PM 69.1 °F 60.1 °F 73% 30.01 in 10.0 mi SE 8.1 mph - N/A   Clear
10:53 PM 68.0 °F 59.0 °F 73% 30.00 in 10.0 mi SE 8.1 mph - N/A   Clear
11:53 PM 64.0 °F 57.9 °F 80% 30.00 in 10.0 mi South 3.5 mph - N/A   Clear